Location: LDNL
(36.4545°S, 141.6685°E)
Time: 03:44:18
(UTC+11:00)

Vanguard 2 - Pass Details

Date: 15 August 2022
Orbit: 552 x 2934 km, 32.9° (Epoch: 06 October)

Event Time Altitude Azimuth Distance (km) Brightness Sun altitude
Rises 17:51:27 0° 285° (WNW) 6,789 16.0 0.8°
Reaches altitude 10° 17:56:06 10° 286° (WNW) 5,722 14.3 -0.1°
Maximum altitude 18:13:15 75° 7° (N) 2,419 10.1 -3.4°
Drops below altitude 10° 18:24:37 10° 89° (E) 3,980 10.5 -5.7°
Enters shadow 18:25:50 - 90° (E) 4,301 10.7 -5.9°
Sets 18:27:16 0° 90° (E) 4,697 - -6.2°
